Year,Month,Day,Hour,Minute,Value (Times are PST for temperature in C)
2012,05,19,00,00,8.30
2012,05,19,00,01,8.30
2012,05,19,00,02,8.30
2012,05,19,00,03,8.30
2012,05,19,00,04,8.30
2012,05,19,00,05,8.30
2012,05,19,00,06,8.30
2012,05,19,00,07,8.30
2012,05,19,00,08,8.30
2012,05,19,00,09,8.30
2012,05,19,00,10,8.30
2012,05,19,00,11,8.30
2012,05,19,00,12,8.30
2012,05,19,00,13,8.30
2012,05,19,00,14,8.30
2012,05,19,00,15,8.30
2012,05,19,00,16,8.20
2012,05,19,00,17,8.20
2012,05,19,00,18,8.20
2012,05,19,00,19,8.20
2012,05,19,00,20,8.20
2012,05,19,00,21,8.20
2012,05,19,00,22,8.20
2012,05,19,00,23,8.20
2012,05,19,00,24,8.20
2012,05,19,00,25,8.10
2012,05,19,00,26,8.10
2012,05,19,00,27,8.10
2012,05,19,00,28,8.10
2012,05,19,00,29,8.10
2012,05,19,00,30,8.10
2012,05,19,00,31,8.10
2012,05,19,00,32,8.10
2012,05,19,00,33,8.10
2012,05,19,00,34,8.10
2012,05,19,00,35,8.10
2012,05,19,00,36,8.10
2012,05,19,00,37,8.10
2012,05,19,00,38,8.10
2012,05,19,00,39,8.10
2012,05,19,00,40,8.00
2012,05,19,00,41,8.00
2012,05,19,00,42,8.00
2012,05,19,00,43,8.00
2012,05,19,00,44,8.00
2012,05,19,00,45,7.90
2012,05,19,00,46,7.90
2012,05,19,00,47,7.90
2012,05,19,00,48,7.90
2012,05,19,00,49,7.90
2012,05,19,00,50,7.90
2012,05,19,00,51,7.90
2012,05,19,00,52,7.90
2012,05,19,00,53,7.90
2012,05,19,00,54,7.90
2012,05,19,00,55,7.90
2012,05,19,00,56,7.90
2012,05,19,00,57,7.90
2012,05,19,00,58,7.90
2012,05,19,00,59,7.90
2012,05,19,01,00,7.90
2012,05,19,01,01,7.90
2012,05,19,01,02,7.90
2012,05,19,01,03,7.90
2012,05,19,01,04,7.90
2012,05,19,01,05,7.90
2012,05,19,01,06,7.90
2012,05,19,01,07,7.90
2012,05,19,01,08,7.90
2012,05,19,01,09,7.90
2012,05,19,01,10,7.90
2012,05,19,01,11,7.90
2012,05,19,01,12,7.90
2012,05,19,01,13,7.90
2012,05,19,01,14,7.80
2012,05,19,01,15,7.80
2012,05,19,01,16,7.80
2012,05,19,01,17,7.80
2012,05,19,01,18,7.70
2012,05,19,01,19,7.70
2012,05,19,01,20,7.70
2012,05,19,01,21,7.70
2012,05,19,01,22,7.70
2012,05,19,01,23,7.70
2012,05,19,01,24,7.60
2012,05,19,01,25,7.60
2012,05,19,01,26,7.60
2012,05,19,01,27,7.60
2012,05,19,01,28,7.60
2012,05,19,01,29,7.60
2012,05,19,01,30,7.60
2012,05,19,01,31,7.60
2012,05,19,01,32,7.60
2012,05,19,01,33,7.60
2012,05,19,01,34,7.60
2012,05,19,01,35,7.60
2012,05,19,01,36,7.60
2012,05,19,01,37,7.50
2012,05,19,01,38,7.50
2012,05,19,01,39,7.50
2012,05,19,01,40,7.50
2012,05,19,01,41,7.50
2012,05,19,01,42,7.50
2012,05,19,01,43,7.50
2012,05,19,01,44,7.50
2012,05,19,01,45,7.50
2012,05,19,01,46,7.40
2012,05,19,01,47,7.40
2012,05,19,01,48,7.40
2012,05,19,01,49,7.40
2012,05,19,01,50,7.40
2012,05,19,01,51,7.40
2012,05,19,01,52,7.40
2012,05,19,01,53,7.40
2012,05,19,01,54,7.40
2012,05,19,01,55,7.40
2012,05,19,01,56,7.40
2012,05,19,01,57,7.40
2012,05,19,01,58,7.40
2012,05,19,01,59,7.40
2012,05,19,02,00,7.40
2012,05,19,02,01,7.40
2012,05,19,02,02,7.40
2012,05,19,02,03,7.40
2012,05,19,02,04,7.40
2012,05,19,02,05,7.30
2012,05,19,02,06,7.30
2012,05,19,02,07,7.30
2012,05,19,02,08,7.30
2012,05,19,02,09,7.30
2012,05,19,02,10,7.30
2012,05,19,02,11,7.20
2012,05,19,02,12,7.20
2012,05,19,02,13,7.10
2012,05,19,02,14,7.10
2012,05,19,02,15,7.10
2012,05,19,02,16,7.00
2012,05,19,02,17,7.00
2012,05,19,02,18,7.00
2012,05,19,02,19,6.90
2012,05,19,02,20,6.90
2012,05,19,02,21,6.90
2012,05,19,02,22,6.90
2012,05,19,02,23,6.90
2012,05,19,02,24,6.90
2012,05,19,02,25,6.90
2012,05,19,02,26,6.90
2012,05,19,02,27,6.90
2012,05,19,02,28,6.90
2012,05,19,02,29,6.90
2012,05,19,02,30,6.90
2012,05,19,02,31,6.90
2012,05,19,02,32,6.80
2012,05,19,02,33,6.80
2012,05,19,02,34,6.80
2012,05,19,02,35,6.80
2012,05,19,02,36,6.80
2012,05,19,02,37,6.80
2012,05,19,02,38,6.80
2012,05,19,02,39,6.80
2012,05,19,02,40,6.80
2012,05,19,02,41,6.80
2012,05,19,02,42,6.80
2012,05,19,02,43,6.70
2012,05,19,02,44,6.70
2012,05,19,02,45,6.70
2012,05,19,02,46,6.70
2012,05,19,02,47,6.70
2012,05,19,02,48,6.70
2012,05,19,02,49,6.70
2012,05,19,02,50,6.70
2012,05,19,02,51,6.70
2012,05,19,02,52,6.70
2012,05,19,02,53,6.70
2012,05,19,02,54,6.60
2012,05,19,02,55,6.60
2012,05,19,02,56,6.60
2012,05,19,02,57,6.60
2012,05,19,02,58,6.60
2012,05,19,02,59,6.60
2012,05,19,03,00,6.60
2012,05,19,03,01,6.60
2012,05,19,03,02,6.60
2012,05,19,03,03,6.60
2012,05,19,03,04,6.60
2012,05,19,03,05,6.60
2012,05,19,03,06,6.60
2012,05,19,03,07,6.60
2012,05,19,03,08,6.60
2012,05,19,03,09,6.60
2012,05,19,03,10,6.60
2012,05,19,03,11,6.60
2012,05,19,03,12,6.60
2012,05,19,03,13,6.50
2012,05,19,03,14,6.50
2012,05,19,03,15,6.40
2012,05,19,03,16,6.40
2012,05,19,03,17,6.40
2012,05,19,03,18,6.40
2012,05,19,03,19,6.30
2012,05,19,03,20,6.30
2012,05,19,03,21,6.30
2012,05,19,03,22,6.30
2012,05,19,03,23,6.20
2012,05,19,03,24,6.20
2012,05,19,03,25,6.20
2012,05,19,03,26,6.20
2012,05,19,03,27,6.20
2012,05,19,03,28,6.20
2012,05,19,03,29,6.20
2012,05,19,03,30,6.20
2012,05,19,03,31,6.20
2012,05,19,03,32,6.10
2012,05,19,03,33,6.10
2012,05,19,03,34,6.10
2012,05,19,03,35,6.10
2012,05,19,03,36,6.10
2012,05,19,03,37,6.10
2012,05,19,03,38,6.10
2012,05,19,03,39,6.10
2012,05,19,03,40,6.10
2012,05,19,03,41,6.10
2012,05,19,03,42,6.00
2012,05,19,03,43,6.00
2012,05,19,03,44,6.00
2012,05,19,03,45,5.90
2012,05,19,03,46,5.90
2012,05,19,03,47,5.90
2012,05,19,03,48,5.90
2012,05,19,03,49,5.90
2012,05,19,03,50,5.90
2012,05,19,03,51,5.80
2012,05,19,03,52,5.80
2012,05,19,03,53,5.80
2012,05,19,03,54,5.80
2012,05,19,03,55,5.80
2012,05,19,03,56,5.80
2012,05,19,03,57,5.80
2012,05,19,03,58,5.80
2012,05,19,03,59,5.80
2012,05,19,04,00,5.70
2012,05,19,04,01,5.70
2012,05,19,04,02,5.70
2012,05,19,04,03,5.70
2012,05,19,04,04,5.70
2012,05,19,04,05,5.70
2012,05,19,04,06,5.70
2012,05,19,04,07,5.70
2012,05,19,04,08,5.60
2012,05,19,04,09,5.60
2012,05,19,04,10,5.60
2012,05,19,04,11,5.60
2012,05,19,04,12,5.60
2012,05,19,04,13,5.60
2012,05,19,04,14,5.60
2012,05,19,04,15,5.60
2012,05,19,04,16,5.60
2012,05,19,04,17,5.60
2012,05,19,04,18,5.60
2012,05,19,04,19,5.60
2012,05,19,04,20,5.60
2012,05,19,04,21,5.60
2012,05,19,04,22,5.60
2012,05,19,04,23,5.60
2012,05,19,04,24,5.60
2012,05,19,04,25,5.60
2012,05,19,04,26,5.60
2012,05,19,04,27,5.50
2012,05,19,04,28,5.50
2012,05,19,04,29,5.50
2012,05,19,04,30,5.50
2012,05,19,04,31,5.40
2012,05,19,04,32,5.40
2012,05,19,04,33,5.40
2012,05,19,04,34,5.40
2012,05,19,04,35,5.40
2012,05,19,04,36,5.30
2012,05,19,04,37,5.30
2012,05,19,04,38,5.30
2012,05,19,04,39,5.30
2012,05,19,04,40,5.30
2012,05,19,04,41,5.30
2012,05,19,04,42,5.30
2012,05,19,04,43,5.30
2012,05,19,04,44,5.30
2012,05,19,04,45,5.30
2012,05,19,04,46,5.30
2012,05,19,04,47,5.30
2012,05,19,04,48,5.30
2012,05,19,04,49,5.20
2012,05,19,04,50,5.20
2012,05,19,04,51,5.20
2012,05,19,04,52,5.20
2012,05,19,04,53,5.20
2012,05,19,04,54,5.10
2012,05,19,04,55,5.10
2012,05,19,04,56,5.10
2012,05,19,04,57,5.10
2012,05,19,04,58,5.10
2012,05,19,04,59,5.00
2012,05,19,05,00,5.00
2012,05,19,05,01,5.00
2012,05,19,05,02,4.90
2012,05,19,05,03,4.90
2012,05,19,05,04,4.90
2012,05,19,05,05,4.90
2012,05,19,05,06,4.90
2012,05,19,05,07,4.80
2012,05,19,05,08,4.80
2012,05,19,05,09,4.80
2012,05,19,05,10,4.80
2012,05,19,05,11,4.80
2012,05,19,05,12,4.80
2012,05,19,05,13,4.80
2012,05,19,05,14,4.80
2012,05,19,05,15,4.80
2012,05,19,05,16,4.80
2012,05,19,05,17,4.80
2012,05,19,05,18,4.80
2012,05,19,05,19,4.80
2012,05,19,05,20,4.80
2012,05,19,05,21,4.80
2012,05,19,05,22,4.80
2012,05,19,05,23,4.80
2012,05,19,05,24,4.80
2012,05,19,05,25,4.80
2012,05,19,05,26,4.80
2012,05,19,05,27,4.80
2012,05,19,05,28,4.70
2012,05,19,05,29,4.70
2012,05,19,05,30,4.70
2012,05,19,05,31,4.70
2012,05,19,05,32,4.70
2012,05,19,05,33,4.70
2012,05,19,05,34,4.70
2012,05,19,05,35,4.70
2012,05,19,05,36,4.70
2012,05,19,05,37,4.70
2012,05,19,05,38,4.70
2012,05,19,05,39,4.70
2012,05,19,05,40,4.70
2012,05,19,05,41,4.70
2012,05,19,05,42,4.70
2012,05,19,05,43,4.70
2012,05,19,05,44,4.70
2012,05,19,05,45,4.70
2012,05,19,05,46,4.70
2012,05,19,05,47,4.70
2012,05,19,05,48,4.70
2012,05,19,05,49,4.70
2012,05,19,05,50,4.70
2012,05,19,05,51,4.70
2012,05,19,05,52,4.70
2012,05,19,05,53,4.70
2012,05,19,05,54,4.80
2012,05,19,05,55,4.80
2012,05,19,05,56,4.80
2012,05,19,05,57,4.80
2012,05,19,05,58,4.80
2012,05,19,05,59,4.80
2012,05,19,06,00,4.90
2012,05,19,06,01,4.90
2012,05,19,06,02,4.90
2012,05,19,06,03,4.90
2012,05,19,06,04,4.90
2012,05,19,06,05,4.90
2012,05,19,06,06,4.90
2012,05,19,06,07,4.90
2012,05,19,06,08,4.90
2012,05,19,06,09,4.90
2012,05,19,06,10,5.00
2012,05,19,06,11,5.00
2012,05,19,06,12,5.00
2012,05,19,06,13,5.10
2012,05,19,06,14,5.10
2012,05,19,06,15,5.20
2012,05,19,06,16,5.20
2012,05,19,06,17,5.20
2012,05,19,06,18,5.20
2012,05,19,06,19,5.30
2012,05,19,06,20,5.30
2012,05,19,06,21,5.30
2012,05,19,06,22,5.40
2012,05,19,06,23,5.40
2012,05,19,06,24,5.50
2012,05,19,06,25,5.50
2012,05,19,06,26,5.60
2012,05,19,06,27,5.70
2012,05,19,06,28,5.70
2012,05,19,06,29,5.80
2012,05,19,06,30,5.80
2012,05,19,06,31,5.80
2012,05,19,06,32,5.80
2012,05,19,06,33,5.80
2012,05,19,06,34,5.90
2012,05,19,06,35,5.90
2012,05,19,06,36,5.90
2012,05,19,06,37,5.90
2012,05,19,06,38,6.00
2012,05,19,06,39,6.00
2012,05,19,06,40,6.00
2012,05,19,06,41,6.10
2012,05,19,06,42,6.10
2012,05,19,06,43,6.20
2012,05,19,06,44,6.20
2012,05,19,06,45,6.30
2012,05,19,06,46,6.30
2012,05,19,06,47,6.40
2012,05,19,06,48,6.40
2012,05,19,06,49,6.50
2012,05,19,06,50,6.50
2012,05,19,06,51,6.60
2012,05,19,06,52,6.60
2012,05,19,06,53,6.70
2012,05,19,06,54,6.70
2012,05,19,06,55,6.80
2012,05,19,06,56,6.80
2012,05,19,06,57,6.80
2012,05,19,06,58,6.90
2012,05,19,06,59,6.90
2012,05,19,07,00,7.00
2012,05,19,07,01,7.10
2012,05,19,07,02,7.10
2012,05,19,07,03,7.20
2012,05,19,07,04,7.20
2012,05,19,07,05,7.30
2012,05,19,07,06,7.30
2012,05,19,07,07,7.30
2012,05,19,07,08,7.40
2012,05,19,07,09,7.40
2012,05,19,07,10,7.40
2012,05,19,07,11,7.50
2012,05,19,07,12,7.50
2012,05,19,07,13,7.50
2012,05,19,07,14,7.50
2012,05,19,07,15,7.60
2012,05,19,07,16,7.60
2012,05,19,07,17,7.60
2012,05,19,07,18,7.70
2012,05,19,07,19,7.70
2012,05,19,07,20,7.80
2012,05,19,07,21,8.00
2012,05,19,07,22,8.10
2012,05,19,07,23,8.20
2012,05,19,07,24,8.40
2012,05,19,07,25,8.50
2012,05,19,07,26,8.60
2012,05,19,07,27,8.80
2012,05,19,07,28,8.90
2012,05,19,07,29,9.10
2012,05,19,07,30,9.20
2012,05,19,07,31,9.30
2012,05,19,07,32,9.30
2012,05,19,07,33,9.40
2012,05,19,07,34,9.50
2012,05,19,07,35,9.50
2012,05,19,07,36,9.60
2012,05,19,07,37,9.60
2012,05,19,07,38,9.70
2012,05,19,07,39,9.70
2012,05,19,07,40,9.70
2012,05,19,07,41,9.70
2012,05,19,07,42,9.70
2012,05,19,07,43,9.60
2012,05,19,07,44,9.60
2012,05,19,07,45,9.50
2012,05,19,07,46,9.50
2012,05,19,07,47,9.50
2012,05,19,07,48,9.50
2012,05,19,07,49,9.60
2012,05,19,07,50,9.60
2012,05,19,07,51,9.60
2012,05,19,07,52,9.70
2012,05,19,07,53,9.70
2012,05,19,07,54,9.80
2012,05,19,07,55,9.80
2012,05,19,07,56,9.90
2012,05,19,07,57,9.90
2012,05,19,07,58,10.00
2012,05,19,07,59,10.00
2012,05,19,08,00,10.00
2012,05,19,08,01,10.10
2012,05,19,08,02,10.00
2012,05,19,08,03,10.10
2012,05,19,08,04,10.00
2012,05,19,08,05,10.00
2012,05,19,08,06,10.10
2012,05,19,08,07,10.10
2012,05,19,08,08,10.10
2012,05,19,08,09,10.20
2012,05,19,08,10,10.20
2012,05,19,08,11,10.20
2012,05,19,08,12,10.30
2012,05,19,08,13,10.30
2012,05,19,08,14,10.30
2012,05,19,08,15,10.30
2012,05,19,08,16,10.40
2012,05,19,08,17,10.50
2012,05,19,08,18,10.60
2012,05,19,08,19,10.70
2012,05,19,08,20,10.80
2012,05,19,08,21,10.80
2012,05,19,08,22,10.90
2012,05,19,08,23,11.00
2012,05,19,08,24,11.00
2012,05,19,08,25,11.10
2012,05,19,08,26,11.20
2012,05,19,08,27,11.10
2012,05,19,08,28,11.10
2012,05,19,08,29,11.10
2012,05,19,08,30,11.10
2012,05,19,08,31,11.10
2012,05,19,08,32,11.10
2012,05,19,08,33,11.20
2012,05,19,08,34,11.20
2012,05,19,08,35,11.20
2012,05,19,08,36,11.20
2012,05,19,08,37,11.20
2012,05,19,08,38,11.30
2012,05,19,08,39,11.30
2012,05,19,08,40,11.40
2012,05,19,08,41,11.40
2012,05,19,08,42,11.40
2012,05,19,08,43,11.40
2012,05,19,08,44,11.40
2012,05,19,08,45,11.50
2012,05,19,08,46,11.50
2012,05,19,08,47,11.50
2012,05,19,08,48,11.40
2012,05,19,08,49,11.20
2012,05,19,08,50,11.10
2012,05,19,08,51,11.00
2012,05,19,08,52,10.90
2012,05,19,08,53,10.80
2012,05,19,08,54,10.70
2012,05,19,08,55,10.70
2012,05,19,08,56,10.60
2012,05,19,08,57,10.50
2012,05,19,08,58,10.40
2012,05,19,08,59,10.30
2012,05,19,09,00,10.20
2012,05,19,09,01,10.20
2012,05,19,09,02,10.20
2012,05,19,09,03,10.30
2012,05,19,09,04,10.20
2012,05,19,09,05,10.20
2012,05,19,09,06,10.10
2012,05,19,09,07,10.10
2012,05,19,09,08,10.10
2012,05,19,09,09,10.10
2012,05,19,09,10,10.20
2012,05,19,09,11,10.20
2012,05,19,09,12,10.20
2012,05,19,09,13,10.20
2012,05,19,09,14,10.20
2012,05,19,09,15,10.30
2012,05,19,09,16,10.30
2012,05,19,09,17,10.30
2012,05,19,09,18,10.30
2012,05,19,09,19,10.30
2012,05,19,09,20,10.30
2012,05,19,09,21,10.30
2012,05,19,09,22,10.30
2012,05,19,09,23,10.20
2012,05,19,09,24,10.30
2012,05,19,09,25,10.20
2012,05,19,09,26,10.20
2012,05,19,09,27,10.30
2012,05,19,09,28,10.30
2012,05,19,09,29,10.30
2012,05,19,09,30,10.30
2012,05,19,09,31,10.30
2012,05,19,09,32,10.30
2012,05,19,09,33,10.40
2012,05,19,09,34,10.40
2012,05,19,09,35,10.40
2012,05,19,09,36,10.50
2012,05,19,09,37,10.50
2012,05,19,09,38,10.50
2012,05,19,09,39,10.50
2012,05,19,09,40,10.50
2012,05,19,09,41,10.50
2012,05,19,09,42,10.40
2012,05,19,09,43,10.40
2012,05,19,09,44,10.40
2012,05,19,09,45,10.50
2012,05,19,09,46,10.50
2012,05,19,09,47,10.50
2012,05,19,09,48,10.50
2012,05,19,09,49,10.40
2012,05,19,09,50,10.30
2012,05,19,09,51,10.30
2012,05,19,09,52,10.20
2012,05,19,09,53,10.20
2012,05,19,09,54,10.20
2012,05,19,09,55,10.30
2012,05,19,09,56,10.30
2012,05,19,09,57,10.40
2012,05,19,09,58,10.40
2012,05,19,09,59,10.40
2012,05,19,10,00,10.40
2012,05,19,10,01,10.40
2012,05,19,10,02,10.30
2012,05,19,10,03,10.20
2012,05,19,10,04,10.20
2012,05,19,10,05,10.10
2012,05,19,10,06,10.10
2012,05,19,10,07,10.10
2012,05,19,10,08,10.10
2012,05,19,10,09,10.20
2012,05,19,10,10,10.30
2012,05,19,10,11,10.30
2012,05,19,10,12,10.40
2012,05,19,10,13,10.50
2012,05,19,10,14,10.60
2012,05,19,10,15,10.50
2012,05,19,10,16,10.50
2012,05,19,10,17,10.50
2012,05,19,10,18,10.50
2012,05,19,10,19,10.50
2012,05,19,10,20,10.60
2012,05,19,10,21,10.60
2012,05,19,10,22,10.60
2012,05,19,10,23,10.50
2012,05,19,10,24,10.40
2012,05,19,10,25,10.40
2012,05,19,10,26,10.30
2012,05,19,10,27,10.30
2012,05,19,10,28,10.30
2012,05,19,10,29,10.30
2012,05,19,10,30,10.30
2012,05,19,10,31,10.30
2012,05,19,10,32,10.30
2012,05,19,10,33,10.20
2012,05,19,10,34,10.30
2012,05,19,10,35,10.30
2012,05,19,10,36,10.30
2012,05,19,10,37,10.40
2012,05,19,10,38,10.50
2012,05,19,10,39,10.50
2012,05,19,10,40,10.50
2012,05,19,10,41,10.40
2012,05,19,10,42,10.40
2012,05,19,10,43,10.40
2012,05,19,10,44,10.40
2012,05,19,10,45,10.40
2012,05,19,10,46,10.40
2012,05,19,10,47,10.40
2012,05,19,10,48,10.40
2012,05,19,10,49,10.40
2012,05,19,10,50,10.30
2012,05,19,10,51,10.30
2012,05,19,10,52,10.30
2012,05,19,10,53,10.40
2012,05,19,10,54,10.50
2012,05,19,10,55,10.50
2012,05,19,10,56,10.40
2012,05,19,10,57,10.50
2012,05,19,10,58,10.60
2012,05,19,10,59,10.60
2012,05,19,11,00,10.70
2012,05,19,11,01,10.70
2012,05,19,11,02,10.70
2012,05,19,11,03,10.60
2012,05,19,11,04,10.50
2012,05,19,11,05,10.50
2012,05,19,11,06,10.60
2012,05,19,11,07,10.70
2012,05,19,11,08,10.70
2012,05,19,11,09,10.70
2012,05,19,11,10,10.70
2012,05,19,11,11,10.60
2012,05,19,11,12,10.50
2012,05,19,11,13,10.40
2012,05,19,11,14,10.30
2012,05,19,11,15,10.20
2012,05,19,11,16,10.20
2012,05,19,11,17,10.20
2012,05,19,11,18,10.20
2012,05,19,11,19,10.30
2012,05,19,11,20,10.20
2012,05,19,11,21,10.20
2012,05,19,11,22,10.20
2012,05,19,11,23,10.30
2012,05,19,11,24,10.40
2012,05,19,11,25,10.50
2012,05,19,11,26,10.60
2012,05,19,11,27,10.70
2012,05,19,11,28,10.80
2012,05,19,11,29,10.90
2012,05,19,11,30,11.00
2012,05,19,11,31,11.00
2012,05,19,11,32,11.10
2012,05,19,11,33,11.20
2012,05,19,11,34,11.20
2012,05,19,11,35,11.20
2012,05,19,11,36,11.20
2012,05,19,11,37,11.20
2012,05,19,11,38,11.20
2012,05,19,11,39,11.20
2012,05,19,11,40,11.30
2012,05,19,11,41,11.40
2012,05,19,11,42,11.50
2012,05,19,11,43,11.50
2012,05,19,11,44,11.60
2012,05,19,11,45,11.50
2012,05,19,11,46,11.40
2012,05,19,11,47,11.40
2012,05,19,11,48,11.30
2012,05,19,11,49,11.30
2012,05,19,11,50,11.20
2012,05,19,11,51,11.20
2012,05,19,11,52,11.10
2012,05,19,11,53,11.00
2012,05,19,11,54,10.90
2012,05,19,11,55,10.80
2012,05,19,11,56,10.80
2012,05,19,11,57,10.70
2012,05,19,11,58,10.70
2012,05,19,11,59,10.70
2012,05,19,12,00,10.80
2012,05,19,12,01,10.80
2012,05,19,12,02,10.80
2012,05,19,12,03,10.90
2012,05,19,12,04,11.00
2012,05,19,12,05,11.10
2012,05,19,12,06,11.20
2012,05,19,12,07,11.20
2012,05,19,12,08,11.30
2012,05,19,12,09,11.30
2012,05,19,12,10,11.30
2012,05,19,12,11,11.30
2012,05,19,12,12,11.40
2012,05,19,12,13,11.40
2012,05,19,12,14,11.40
2012,05,19,12,15,11.40
2012,05,19,12,16,11.40
2012,05,19,12,17,11.30
2012,05,19,12,18,11.40
2012,05,19,12,19,11.40
2012,05,19,12,20,11.40
2012,05,19,12,21,11.50
2012,05,19,12,22,11.50
2012,05,19,12,23,11.50
2012,05,19,12,24,11.60
2012,05,19,12,25,11.60
2012,05,19,12,26,11.60
2012,05,19,12,27,11.70
2012,05,19,12,28,11.70
2012,05,19,12,29,11.70
2012,05,19,12,30,11.70
2012,05,19,12,31,11.70
2012,05,19,12,32,11.70
2012,05,19,12,33,11.70
2012,05,19,12,34,11.70
2012,05,19,12,35,11.70
2012,05,19,12,36,11.70
2012,05,19,12,37,11.70
2012,05,19,12,38,11.70
2012,05,19,12,39,11.70
2012,05,19,12,40,11.80
2012,05,19,12,41,11.80
2012,05,19,12,42,11.80
2012,05,19,12,43,11.70
2012,05,19,12,44,11.80
2012,05,19,12,45,11.80
2012,05,19,12,46,11.80
2012,05,19,12,47,11.80
2012,05,19,12,48,11.70
2012,05,19,12,49,11.70
2012,05,19,12,50,11.70
2012,05,19,12,51,11.70
2012,05,19,12,52,11.70
2012,05,19,12,53,11.70
2012,05,19,12,54,11.70
2012,05,19,12,55,11.70
2012,05,19,12,56,11.70
2012,05,19,12,57,11.80
2012,05,19,12,58,11.80
2012,05,19,12,59,11.80
2012,05,19,13,00,11.80
2012,05,19,13,01,11.80
2012,05,19,13,02,11.80
2012,05,19,13,03,11.90
2012,05,19,13,04,12.00
2012,05,19,13,05,12.20
2012,05,19,13,06,12.20
2012,05,19,13,07,12.20
2012,05,19,13,08,12.20
2012,05,19,13,09,12.30
2012,05,19,13,10,12.30
2012,05,19,13,11,12.20
2012,05,19,13,12,12.20
2012,05,19,13,13,12.10
2012,05,19,13,14,12.10
2012,05,19,13,15,12.10
2012,05,19,13,16,12.10
2012,05,19,13,17,12.00
2012,05,19,13,18,11.90
2012,05,19,13,19,11.80
2012,05,19,13,20,11.80
2012,05,19,13,21,11.80
2012,05,19,13,22,11.80
2012,05,19,13,23,11.80
2012,05,19,13,24,11.70
2012,05,19,13,25,11.70
2012,05,19,13,26,11.70
2012,05,19,13,27,11.70
2012,05,19,13,28,11.70
2012,05,19,13,29,11.70
2012,05,19,13,30,11.80
2012,05,19,13,31,12.00
2012,05,19,13,32,12.10
2012,05,19,13,33,12.20
2012,05,19,13,34,12.20
2012,05,19,13,35,12.30
2012,05,19,13,36,12.20
2012,05,19,13,37,12.20
2012,05,19,13,38,12.20
2012,05,19,13,39,12.30
2012,05,19,13,40,12.30
2012,05,19,13,41,12.40
2012,05,19,13,42,12.40
2012,05,19,13,43,12.50
2012,05,19,13,44,12.50
2012,05,19,13,45,12.60
2012,05,19,13,46,12.60
2012,05,19,13,47,12.70
2012,05,19,13,48,12.70
2012,05,19,13,49,12.80
2012,05,19,13,50,12.90
2012,05,19,13,51,12.90
2012,05,19,13,52,13.00
2012,05,19,13,53,13.10
2012,05,19,13,54,13.20
2012,05,19,13,55,13.20
2012,05,19,13,56,13.20
2012,05,19,13,57,13.20
2012,05,19,13,58,13.20
2012,05,19,13,59,13.10
2012,05,19,14,00,13.10
2012,05,19,14,01,13.00
2012,05,19,14,02,13.00
2012,05,19,14,03,12.90
2012,05,19,14,04,12.80
2012,05,19,14,05,12.80
2012,05,19,14,06,12.70
2012,05,19,14,07,12.70
2012,05,19,14,08,12.70
2012,05,19,14,09,12.70
2012,05,19,14,10,12.60
2012,05,19,14,11,12.70
2012,05,19,14,12,12.60
2012,05,19,14,13,12.60
2012,05,19,14,14,12.60
2012,05,19,14,15,12.70
2012,05,19,14,16,12.80
2012,05,19,14,17,12.90
2012,05,19,14,18,13.00
2012,05,19,14,19,13.10
2012,05,19,14,20,13.20
2012,05,19,14,21,13.20
2012,05,19,14,22,13.20
2012,05,19,14,23,13.20
2012,05,19,14,24,13.30
2012,05,19,14,25,13.40
2012,05,19,14,26,13.50
2012,05,19,14,27,13.50
2012,05,19,14,28,13.60
2012,05,19,14,29,13.70
2012,05,19,14,30,13.70
2012,05,19,14,31,13.70
2012,05,19,14,32,13.70
2012,05,19,14,33,13.70
2012,05,19,14,34,13.70
2012,05,19,14,35,13.70
2012,05,19,14,36,13.70
2012,05,19,14,37,13.60
2012,05,19,14,38,13.60
2012,05,19,14,39,13.60
2012,05,19,14,40,13.60
2012,05,19,14,41,13.60
2012,05,19,14,42,13.60
2012,05,19,14,43,13.70
2012,05,19,14,44,13.70
2012,05,19,14,45,13.70
2012,05,19,14,46,13.80
2012,05,19,14,47,13.90
2012,05,19,14,48,13.80
2012,05,19,14,49,13.80
2012,05,19,14,50,13.80
2012,05,19,14,51,13.70
2012,05,19,14,52,13.60
2012,05,19,14,53,13.50
2012,05,19,14,54,13.40
2012,05,19,14,55,13.50
2012,05,19,14,56,13.50
2012,05,19,14,57,13.60
2012,05,19,14,58,13.70
2012,05,19,14,59,13.70
2012,05,19,15,00,13.80
2012,05,19,15,01,13.80
2012,05,19,15,02,13.80
2012,05,19,15,03,13.90
2012,05,19,15,04,13.90
2012,05,19,15,05,14.00
2012,05,19,15,06,14.10
2012,05,19,15,07,14.20
2012,05,19,15,08,14.20
2012,05,19,15,09,14.30
2012,05,19,15,10,14.30
2012,05,19,15,11,14.30
2012,05,19,15,12,14.30
2012,05,19,15,13,14.20
2012,05,19,15,14,14.20
2012,05,19,15,15,14.10
2012,05,19,15,16,14.00
2012,05,19,15,17,14.00
2012,05,19,15,18,13.90
2012,05,19,15,19,13.90
2012,05,19,15,20,13.80
2012,05,19,15,21,13.90
2012,05,19,15,22,14.00
2012,05,19,15,23,14.10
2012,05,19,15,24,14.10
2012,05,19,15,25,14.10
2012,05,19,15,26,14.00
2012,05,19,15,27,14.00
2012,05,19,15,28,14.00
2012,05,19,15,29,13.90
2012,05,19,15,30,13.90
2012,05,19,15,31,13.90
2012,05,19,15,32,13.90
2012,05,19,15,33,13.90
2012,05,19,15,34,13.90
2012,05,19,15,35,14.00
2012,05,19,15,36,14.10
2012,05,19,15,37,14.10
2012,05,19,15,38,14.10
2012,05,19,15,39,14.10
2012,05,19,15,40,14.20
2012,05,19,15,41,14.20
2012,05,19,15,42,14.30
2012,05,19,15,43,14.30
2012,05,19,15,44,14.30
2012,05,19,15,45,14.20
2012,05,19,15,46,14.30
2012,05,19,15,47,14.20
2012,05,19,15,48,14.20
2012,05,19,15,49,14.30
2012,05,19,15,50,14.30
2012,05,19,15,51,14.30
2012,05,19,15,52,14.30
2012,05,19,15,53,14.30
2012,05,19,15,54,14.30
2012,05,19,15,55,14.30
2012,05,19,15,56,14.30
2012,05,19,15,57,14.30
2012,05,19,15,58,14.20
2012,05,19,15,59,14.20
2012,05,19,16,00,14.20
2012,05,19,16,01,14.20
2012,05,19,16,02,14.20
2012,05,19,16,03,14.20
2012,05,19,16,04,14.20
2012,05,19,16,05,14.20
2012,05,19,16,06,14.20
2012,05,19,16,07,14.10
2012,05,19,16,08,14.00
2012,05,19,16,09,14.00
2012,05,19,16,10,14.00
2012,05,19,16,11,14.00
2012,05,19,16,12,14.00
2012,05,19,16,13,13.90
2012,05,19,16,14,13.90
2012,05,19,16,15,13.90
2012,05,19,16,16,14.00
2012,05,19,16,17,14.00
2012,05,19,16,18,14.00
2012,05,19,16,19,14.00
2012,05,19,16,20,14.10
2012,05,19,16,21,14.10
2012,05,19,16,22,14.20
2012,05,19,16,23,14.10
2012,05,19,16,24,14.00
2012,05,19,16,25,13.90
2012,05,19,16,26,13.90
2012,05,19,16,27,13.90
2012,05,19,16,28,13.80
2012,05,19,16,29,13.80
2012,05,19,16,30,13.70
2012,05,19,16,31,13.60
2012,05,19,16,32,13.50
2012,05,19,16,33,13.40
2012,05,19,16,34,13.40
2012,05,19,16,35,13.30
2012,05,19,16,36,13.30
2012,05,19,16,37,13.30
2012,05,19,16,38,13.40
2012,05,19,16,39,13.40
2012,05,19,16,40,13.30
2012,05,19,16,41,13.30
2012,05,19,16,42,13.20
2012,05,19,16,43,13.20
2012,05,19,16,44,13.10
2012,05,19,16,45,13.00
2012,05,19,16,46,12.80
2012,05,19,16,47,12.70
2012,05,19,16,48,12.70
2012,05,19,16,49,12.70
2012,05,19,16,50,12.70
2012,05,19,16,51,12.70
2012,05,19,16,52,12.70
2012,05,19,16,53,12.70
2012,05,19,16,54,12.70
2012,05,19,16,55,12.70
2012,05,19,16,56,12.70
2012,05,19,16,57,12.70
2012,05,19,16,58,12.70
2012,05,19,16,59,12.60
2012,05,19,17,00,12.60
2012,05,19,17,01,12.60
2012,05,19,17,02,12.60
2012,05,19,17,03,12.60
2012,05,19,17,04,12.60
2012,05,19,17,05,12.60
2012,05,19,17,06,12.50
2012,05,19,17,07,12.50
2012,05,19,17,08,12.50
2012,05,19,17,09,12.50
2012,05,19,17,10,12.60
2012,05,19,17,11,12.60
2012,05,19,17,12,12.60
2012,05,19,17,13,12.60
2012,05,19,17,14,12.60
2012,05,19,17,15,12.60
2012,05,19,17,16,12.70
2012,05,19,17,17,12.80
2012,05,19,17,18,12.80
2012,05,19,17,19,12.80
2012,05,19,17,20,12.90
2012,05,19,17,21,12.90
2012,05,19,17,22,12.90
2012,05,19,17,23,12.90
2012,05,19,17,24,12.90
2012,05,19,17,25,12.90
2012,05,19,17,26,13.00
2012,05,19,17,27,13.00
2012,05,19,17,28,13.00
2012,05,19,17,29,13.00
2012,05,19,17,30,13.00
2012,05,19,17,31,13.00
2012,05,19,17,32,13.10
2012,05,19,17,33,13.10
2012,05,19,17,34,13.20
2012,05,19,17,35,13.20
2012,05,19,17,36,13.30
2012,05,19,17,37,13.30
2012,05,19,17,38,13.30
2012,05,19,17,39,13.40
2012,05,19,17,40,13.40